Location: *
(42.0175°N, 9.4056°E)
Time: 14:14:39
(UTC+00:00)

NOSS 3-1 (A) - Pass Details

Date: 25 August 2019
Orbit: 774 x 1439 km, 63.4° (Epoch: 03 September)

Event Time Altitude Azimuth Distance (km) Brightness Sun altitude
Rises 21:02:20 0° 324° (NW) 3,990 8.0 -28.1°
Reaches altitude 10° 21:04:54 10° 326° (NW) 3,115 7.1 -28.4°
Maximum altitude 21:12:34 82° 54° (NE) 1,330 4.0 -29.3°
Enters shadow 21:14:04 64° 128° (SE) 1,460 4.0 -29.5°
